When you browse on this site, cookies collect data to enhance your experience and personalize the content and advertising you see.
Visit our Privacy Policy to learn more. By continuing to use the site, you agree to this use of cookies and data.
EN

Hourly Weather Banja Luka

Today, 13 August, Thursday

Time Temperature Precipitation Wind Pressure Humidity
00:00 +19°C° 0 mm 1 mps 716 mmHg 91%
01:00 +19°C° 0 mm 1 mps 716 mmHg 92%
02:00 +19°C° 0 mm 1 mps 716 mmHg 92%
03:00 +19°C° 0 mm 1 mps 716 mmHg 92%
04:00 +18°C° 0 mm 1 mps 716 mmHg 92%
05:00 +20°C° 0 mm 1 mps 716 mmHg 89%
06:00 +21°C° 0 mm 1 mps 717 mmHg 85%
07:00 +22°C° 0 mm 1 mps 717 mmHg 82%
08:00 +25°C° 0 mm 1 mps 717 mmHg 72%
09:00 +26°C° 0 mm 0 mps 717 mmHg 61%
10:00 +28°C° 0 mm 0 mps 717 mmHg 51%
11:00 +31°C° 0 mm 1 mps 717 mmHg 48%
12:00 +31°C° 0 mm 1 mps 717 mmHg 45%
13:00 +32°C° 0 mm 1 mps 717 mmHg 42%
14:00 +31°C° 0 mm 1 mps 717 mmHg 44%
15:00 +31°C° 0 mm 1 mps 716 mmHg 47%
16:00 +30°C° 0 mm 1 mps 716 mmHg 50%
17:00 +28°C° 0 mm 1 mps 715 mmHg 59%
18:00 +26°C° 0 mm 1 mps 715 mmHg 68%
19:00 +22°C° 0 mm 0 mps 715 mmHg 77%
20:00 +23°C° 0.1 mm 1 mps 715 mmHg 79%
21:00 +22°C° 0.1 mm 1 mps 715 mmHg 81%
22:00 +22°C° 0.1 mm 1 mps 715 mmHg 83%
23:00 +21°C° 0 mm 1 mps 714 mmHg 83%

Tomorrow, 14 August, Friday

Time Temperature Precipitation Wind Pressure Humidity
00:00 +21°C° 0 mm 1 mps 714 mmHg 83%
01:00 +21°C° 0 mm 1 mps 714 mmHg 83%
02:00 +21°C° 0 mm 1 mps 714 mmHg 82%
03:00 +20°C° 0 mm 1 mps 714 mmHg 81%
04:00 +20°C° 0 mm 1 mps 714 mmHg 80%
05:00 +21°C° 0 mm 1 mps 714 mmHg 77%
06:00 +23°C° 0 mm 1 mps 714 mmHg 74%
07:00 +24°C° 0 mm 1 mps 714 mmHg 71%
08:00 +26°C° 0 mm 1 mps 715 mmHg 62%
09:00 +29°C° 0 mm 1 mps 715 mmHg 52%
10:00 +32°C° 0 mm 1 mps 715 mmHg 43%
11:00 +32°C° 0 mm 1 mps 715 mmHg 41%
12:00 +32°C° 0 mm 1 mps 715 mmHg 40%
13:00 +33°C° 0 mm 1 mps 714 mmHg 38%
14:00 +32°C° 0.1 mm 1 mps 714 mmHg 45%
15:00 +30°C° 0.1 mm 1 mps 713 mmHg 52%
16:00 +29°C° 0.1 mm 1 mps 713 mmHg 58%
17:00 +27°C° 1.5 mm 1 mps 713 mmHg 69%
18:00 +24°C° 1.5 mm 1 mps 712 mmHg 79%
19:00 +22°C° 1.5 mm 1 mps 712 mmHg 89%
20:00 +21°C° 0.8 mm 1 mps 712 mmHg 90%
21:00 +20°C° 0.8 mm 1 mps 713 mmHg 92%
22:00 +19°C° 0.8 mm 1 mps 713 mmHg 93%
23:00 +19°C° 0 mm 1 mps 713 mmHg 93%

Day after tomorrow, 15 August, Saturday

Time Temperature Precipitation Wind Pressure Humidity
00:00 +19°C° 0 mm 1 mps 713 mmHg 92%
01:00 +19°C° 0 mm 1 mps 713 mmHg 92%
02:00 +19°C° 0 mm 1 mps 712 mmHg 91%
03:00 +18°C° 0 mm 1 mps 712 mmHg 91%
04:00 +16°C° 0 mm 0 mps 712 mmHg 91%
05:00 +17°C° 0.3 mm 0 mps 713 mmHg 91%
06:00 +18°C° 0.3 mm 0 mps 713 mmHg 91%
07:00 +19°C° 0.3 mm 0 mps 713 mmHg 91%
08:00 +22°C° 0.6 mm 1 mps 714 mmHg 87%
09:00 +24°C° 0.6 mm 1 mps 714 mmHg 83%
10:00 +25°C° 0.6 mm 1 mps 714 mmHg 79%
11:00 +25°C° 1.2 mm 1 mps 714 mmHg 79%
12:00 +26°C° 1.2 mm 1 mps 714 mmHg 79%
13:00 +26°C° 1.2 mm 1 mps 714 mmHg 78%
14:00 +26°C° 0.9 mm 1 mps 713 mmHg 78%
15:00 +26°C° 0.9 mm 1 mps 713 mmHg 78%
16:00 +23°C° 0.9 mm 0 mps 713 mmHg 78%
17:00 +22°C° 0.2 mm 0 mps 713 mmHg 81%
18:00 +20°C° 0.2 mm 0 mps 712 mmHg 85%
19:00 +19°C° 0.2 mm 0 mps 712 mmHg 89%
20:00 +18°C° 0.3 mm 0 mps 712 mmHg 90%
21:00 +18°C° 0.3 mm 0 mps 712 mmHg 90%
22:00 +19°C° 0.3 mm 1 mps 712 mmHg 91%
23:00 +19°C° 0 mm 1 mps 712 mmHg 91%

16 August, Sunday

Time Temperature Precipitation Wind Pressure Humidity
00:00 +18°C° 0 mm 1 mps 712 mmHg 92%
01:00 +16°C° 0 mm 0 mps 712 mmHg 92%
02:00 +18°C° 0 mm 1 mps 712 mmHg 92%
03:00 +18°C° 0 mm 1 mps 712 mmHg 92%
04:00 +18°C° 0 mm 1 mps 712 mmHg 93%
05:00 +17°C° 0 mm 0 mps 712 mmHg 91%
06:00 +18°C° 0 mm 0 mps 713 mmHg 90%
07:00 +19°C° 0 mm 0 mps 713 mmHg 89%
08:00 +22°C° 0 mm 0 mps 713 mmHg 78%
09:00 +26°C° 0 mm 1 mps 714 mmHg 67%
10:00 +29°C° 0 mm 1 mps 714 mmHg 55%
11:00 +30°C° 0.1 mm 1 mps 714 mmHg 53%
12:00 +30°C° 0.1 mm 1 mps 714 mmHg 51%
13:00 +31°C° 0.1 mm 1 mps 714 mmHg 49%
14:00 +30°C° 0.1 mm 1 mps 714 mmHg 50%
15:00 +30°C° 0.1 mm 1 mps 714 mmHg 52%
16:00 +29°C° 0.1 mm 1 mps 713 mmHg 53%
17:00 +27°C° 0.1 mm 1 mps 713 mmHg 64%
18:00 +25°C° 0.1 mm 1 mps 713 mmHg 74%
19:00 +20°C° 0.1 mm 0 mps 713 mmHg 84%
20:00 +22°C° 0 mm 1 mps 713 mmHg 85%
21:00 +21°C° 0 mm 1 mps 713 mmHg 86%
22:00 +21°C° 0 mm 1 mps 713 mmHg 87%
23:00 +20°C° 0 mm 1 mps 713 mmHg 87%

17 August, Monday

Time Temperature Precipitation Wind Pressure Humidity
00:00 +20°C° 0 mm 1 mps 713 mmHg 87%
01:00 +20°C° 0 mm 1 mps 713 mmHg 87%
02:00 +20°C° 0 mm 1 mps 713 mmHg 87%
03:00 +20°C° 0 mm 1 mps 713 mmHg 86%
04:00 +20°C° 0 mm 1 mps 713 mmHg 85%
05:00 +21°C° 0 mm 1 mps 713 mmHg 83%
06:00 +22°C° 0 mm 1 mps 713 mmHg 80%
07:00 +23°C° 0 mm 1 mps 713 mmHg 77%
08:00 +26°C° 0 mm 1 mps 713 mmHg 66%
09:00 +28°C° 0 mm 1 mps 714 mmHg 56%
10:00 +31°C° 0 mm 1 mps 714 mmHg 45%
11:00 +32°C° 0 mm 1 mps 714 mmHg 42%
12:00 +32°C° 0 mm 1 mps 714 mmHg 39%
13:00 +34°C° 0 mm 2 mps 714 mmHg 36%
14:00 +32°C° 0 mm 2 mps 713 mmHg 39%
15:00 +31°C° 0 mm 2 mps 713 mmHg 42%
16:00 +31°C° 0 mm 2 mps 712 mmHg 46%
17:00 +28°C° 0 mm 2 mps 712 mmHg 51%
18:00 +26°C° 0 mm 2 mps 712 mmHg 57%
19:00 +24°C° 0 mm 1 mps 711 mmHg 63%
20:00 +23°C° 0 mm 1 mps 711 mmHg 65%
21:00 +21°C° 0 mm 2 mps 711 mmHg 66%
22:00 +20°C° 0 mm 2 mps 711 mmHg 68%
23:00 +20°C° 0 mm 2 mps 711 mmHg 68%

18 August, Tuesday

Time Temperature Precipitation Wind Pressure Humidity
00:00 +20°C° 0 mm 2 mps 711 mmHg 67%
01:00 +20°C° 0 mm 2 mps 711 mmHg 67%
02:00 +20°C° 0.3 mm 2 mps 710 mmHg 72%
03:00 +19°C° 0.3 mm 2 mps 710 mmHg 77%
04:00 +18°C° 0.3 mm 2 mps 710 mmHg 82%
05:00 +19°C° 0.6 mm 2 mps 710 mmHg 85%
06:00 +20°C° 0.6 mm 1 mps 710 mmHg 87%
07:00 +21°C° 0.6 mm 1 mps 710 mmHg 89%
08:00 +24°C° 0.1 mm 1 mps 710 mmHg 76%
09:00 +26°C° 0.1 mm 1 mps 711 mmHg 62%
10:00 +29°C° 0.1 mm 1 mps 711 mmHg 49%
11:00 +29°C° 0.1 mm 2 mps 711 mmHg 48%
12:00 +29°C° 0.1 mm 2 mps 711 mmHg 48%
13:00 +30°C° 0.1 mm 3 mps 711 mmHg 47%
14:00 +28°C° 0.6 mm 2 mps 711 mmHg 57%
15:00 +27°C° 0.6 mm 2 mps 710 mmHg 68%
16:00 +25°C° 0.6 mm 2 mps 710 mmHg 78%
17:00 +24°C° 0.4 mm 2 mps 710 mmHg 84%
18:00 +22°C° 0.4 mm 1 mps 710 mmHg 90%
19:00 +20°C° 0.4 mm 1 mps 710 mmHg 95%
20:00 +20°C° 0.2 mm 1 mps 711 mmHg 97%
21:00 +20°C° 0.2 mm 1 mps 711 mmHg 98%
22:00 +19°C° 0.2 mm 1 mps 711 mmHg 99%
23:00 +19°C° 0.2 mm 1 mps 711 mmHg 98%
Show more